Location: American Medical Response
(33.3472°N, 96.5511°W)
Time: 11:54:02
(UTC+00:00)

Cosmos 1805 Rocket - Pass Details

Date: 06 July 2022
Orbit: 605 x 629 km, 82.5° (Epoch: 12 August)

Event Time Altitude Azimuth Distance (km) Brightness Sun altitude
Exits shadow 09:35:19 41° 210° (SSW) 901 3.9 -18.8°
Maximum altitude 09:36:42 67° 277° (W) 675 3.5 -18.6°
Drops below altitude 10° 09:41:05 10° 0° (N) 1,986 6.8 -18.0°
Sets 09:43:20 0° 4° (N) 2,891 7.7 -17.6°
